Location: Prague
(50.0830°N, 14.4670°E)
Time: 01:38:03
(UTC+01:00)

Oscar 11 - Pass Details

Date: 29 November 2021
Orbit: 611 x 625 km, 97.6° (Epoch: 17 January)

Event Time Altitude Azimuth Distance (km) Brightness Sun altitude
Rises 04:29:56 0° 25° (NNE) 2,922 10.8 -29.1°
Reaches altitude 10° 04:32:39 10° 42° (NE) 2,007 10.2 -28.7°
Maximum altitude 04:35:54 20° 91° (E) 1,441 9.7 -28.1°
Drops below altitude 10° 04:39:08 10° 139° (SE) 1,989 10.1 -27.6°
Sets 04:41:48 0° 156° (SSE) 2,887 10.8 -27.2°
